{"data":{"norad_id":63880,"epoch":"2026-09-20T22:00:03.000096Z","epoch_age_seconds":110970,"freshness":"FRESH","line1":"1 63880U 25094S   26263.91670139  .00040693  00000+0  13779-2 0  9990","line2":"2 63880  69.9999 100.0717 0003494 279.5303 322.6294 15.30381190  5771","mean_motion":15.3038119,"eccentricity":0.0003494,"inclination_deg":69.9999,"raan_deg":100.0717,"arg_perigee_deg":279.5303,"mean_anomaly_deg":322.6294,"bstar":0.0013779,"rev_number":577,"period_min":94.094204072124,"perigee_km":472.27974991031,"apogee_km":477.06849432244,"semimajor_km":6852.8111221164,"source":"CELESTRAK","updated_at":"2026-09-21T09:00:35.140387Z"}}